Powrót do katalogu

STARLINK-4542

AktywnyŁącznośćVLEO
NORAD 53435·PAYLOAD·🇺🇸 United States

Wystrzelony Aug 10, 2022 z Cape Canaveral Space Force Station

Loading…

Następne Przeloty (najbliższe 24 godziny)

TLE

ŚwieżeSource: CelesTrak SupGP

Epoka: Sep 15, 2026, 01:53 UTC

1 53435C 22097AZ  26258.07895833  .00046795  00000+0  13826-2 0  2586
2 53435  53.1592 318.8571 0001232  86.2125 175.6693 15.34365813    19

Śledź STARLINK-4542 w czasie rzeczywistym z AllMySat

Download on the App Store